sat.trackr.live / text

‹ back to catalog

STARLINK-1156

NORAD 45054 · 2020-006L

PAYLOAD ACTIVE UNKNOWN

§ Identity

Operator
Country
US
Launch date
2020-01-29
Launch site
AFETR
Launch vehicle
Mass (kg)
RCS (m²)

Purposes: comms

External: N2YO · Heavens-Above · Gunter

§ Orbital elements

Epoch: 2026-05-24T20:40:12.902880Z

Period
93.89 min
Inclination
53.1587°
Eccentricity
0.0002264
Mean motion
15.33742924 rev/d
Perigee alt
463.1 km
Apogee alt
466.2 km
Semi-major
6,842.8 km
B*
1.2081e-3
RAAN
286.6040°
Arg perigee
308.7242°
Mean anomaly
51.3558°
Rev number
34,821

§ Raw data

STARLINK-11561 45054U 20006L   26144.86126045  .00039816  00000+0  12081-2 0  99952 45054  53.1587 286.6040 0002264 308.7242  51.3558 15.33742924348210

JSON: /api/v1/satellites/45054 · /tle

For live sub-satellite position, see the globe view (requires WebGL).

§ Visibility from observer

Set your observer location to see the next 7 days of passes ≥ 10°. The values pass through the URL so the page stays shareable.

No JS? Fill the form by hand. The geolocation button needs JavaScript.